[[[{"header":{"parameterUnit":"kt","parameterCategory":2,"dx":1,"dy":1,"la1":30.253999710083008,"la2":30.299108505249023,"lo1":-89.0895004272461,"lo2":-89.04439544677734,"nx":28,"ny":28,"refTime":"2022-10-07T21:00:00:Z","depth":0,"parameterNumber":1,"parameterNumberName":"U-component_of_WINDS"},"data":[-2.1261,-2.1223,-2.1175,-2.1109,-2.1055,-2.1,-2.0965,-2.0914,-2.086,-2.0788,-2.0737,-2.0683,-2.0608,-2.0533,-2.0474,-2.045,-2.0428,-2.045,-2.0419,-2.0368,-2.0357,-2.0348,-2.0354,-2.0446,-2.0447,-2.0478,-2.0478,-2.0479,-2.1225,-2.1171,-2.1123,-2.1043,-2.1001,-2.095,-2.0882,-2.0849,-2.0801,-2.0735,-2.0682,-2.0614,-2.0553,-2.0469,-2.0401,-2.0379,-2.035,-2.0364,-2.0364,-2.0353,-2.0297,-2.0305,-2.0388,-2.0388,-2.0388,-2.0388,-2.0388,-2.0388,-2.1147,-2.1127,-2.1051,-2.0998,-2.0944,-2.0891,-2.0862,-2.0797,-2.0747,-2.0673,-2.0623,-2.0567,-2.049,-2.0384,-2.0335,-2.0289,-2.0264,-2.0263,-2.0262,-2.0263,-2.0271,-2.023,-2.0275,-2.0274,-2.0274,-2.0273,-2.0273,0,-2.1075,-2.1036,-2.0987,-2.0923,-2.0881,-2.0827,-2.0768,-2.0749,-2.0648,-2.0611,-2.0553,-2.0511,-2.0427,-2.0365,-2.029,-2.0239,-2.0181,-2.017,-2.0169,-2.0192,-2.0222,-2.0205,-2.0115,-2.0169,-2.0168,-2.0168,-2.0167,-2.0166,-2.0992,-2.0975,-2.0872,-2.0844,-2.08,-2.0756,-2.0718,-2.0631,-2.0595,-2.0508,-2.0494,-2.0431,-2.0377,-2.0291,-2.0212,-2.0148,-2.012,-2.0146,-2.011,-2.0132,-2.0118,-2.012,-2.0117,-2.0155,-2.0156,-2.0157,-2.0158,0,-2.095,-2.0871,-2.0829,-2.0728,-2.0702,-2.0688,-2.06,-2.0575,-2.0514,-2.0471,-2.0456,-2.0359,-2.0303,-2.022,-2.0138,-2.0096,-2.0067,-2.0041,-2.0092,-2.0082,-2.0096,-2.0096,-2.0159,-2.0161,-2.0066,-2.0067,-2.0067,0,-2.0848,-2.0828,-2.0712,-2.0692,-2.0666,-2.0579,-2.0555,-2.0501,-2.0434,-2.04,-2.0322,-2.0291,-2.0189,-2.0145,-2.0083,-2.0044,-2.0029,-1.9994,-1.9978,-2.0001,-2.0005,-1.998,-1.9975,-1.9943,-1.9943,-1.9943,-1.9943,0,-2.0789,-2.0705,-2.0671,-2.0639,-2.053,-2.0515,-2.0468,-2.0394,-2.0358,-2.0298,-2.0273,-2.021,-2.0175,-2.0126,-2.0047,-2.0026,-1.9998,-1.9952,-1.9962,-1.9964,-1.996,-1.9962,-2.0038,-1.9942,-1.9942,-1.9942,-1.9942,0,-2.0695,-2.0639,-2.0603,-2.0509,-2.049,-2.0468,-2.04,-2.0362,-2.0288,-2.0248,-2.02,-2.0138,-2.0099,-2.0059,-2.0002,-1.9996,-1.9966,-1.9929,-1.9928,-1.9919,-1.9877,-1.993,-2.0012,-2.0017,-1.9911,-1.991,-1.991,0,-2.0649,-2.0592,-2.0517,-2.0484,-2.0446,-2.0361,-2.0334,-2.0272,-2.0217,-2.0175,-2.0112,-2.0065,-2.0018,-1.9992,-1.9974,-1.9908,-1.9915,-1.9904,-1.9842,-1.984,-1.9863,-1.9938,-1.9971,-2.0004,-1.9906,-1.9906,-1.9906,0,-2.0603,-2.0473,-2.0472,-2.0431,-2.0337,-2.0305,-2.0275,-2.0209,-2.0186,-2.0125,-2.0096,-2.0028,-1.9989,-1.9946,-1.9889,-1.9876,-1.9908,-1.9836,-1.9833,-1.9851,-1.9897,-1.9928,-1.9934,-1.9872,-1.9872,-1.9872,-1.9903,0,-2.0476,-2.0438,-2.0434,-2.0349,-2.0311,-2.0287,-2.0201,-2.0172,-2.0121,-2.0064,-2.002,-1.9947,-1.988,-1.9865,-1.9816,-1.9813,-1.98,-1.9759,-1.9714,-1.9765,-1.9772,-1.9775,-1.971,-1.9708,-1.9706,-1.9705,0,0,-2.0451,-2.0395,-2.0315,-2.0284,-2.0247,-2.016,-2.0141,-2.0095,-2.0004,-1.998,-1.9954,-1.9849,-1.9792,-1.9747,-1.9756,-1.9729,-1.972,-1.9707,-1.9742,-1.9746,-1.975,-1.976,-1.9765,-1.9702,-1.9702,-1.9701,-1.9701,0,-2.0387,-2.0334,-2.0317,-2.0266,-2.0188,-2.0128,-2.0124,-2.0031,-1.9993,-1.9951,-1.9879,-1.9842,-1.9762,-1.9709,-1.9672,-1.971,-1.9657,-1.9696,-1.9745,-1.9729,-1.9736,-1.9741,-1.9753,-1.9758,-1.9697,-1.9697,-1.9697,0,-2.0327,-2.0259,-2.0243,-2.0157,-2.0105,-2.0068,-2.0,-1.9965,-1.9936,-1.9842,-1.9802,-1.975,-1.9673,-1.9644,-1.9627,-1.9603,-1.9604,-1.9589,-1.9596,-1.9593,-1.9573,-1.9581,-1.9588,-1.9495,-1.9494,-1.9494,0,0,-2.0283,-2.0248,-2.0148,-2.0137,-2.0109,-2.002,-1.9993,-1.9939,-1.9874,-1.9848,-1.9781,-1.9718,-1.9669,-1.9639,-1.959,-1.957,-1.9546,-1.9568,-1.9577,-1.9585,-1.9586,-1.9569,-1.9577,-1.9493,-1.9493,-1.9493,0,0,-2.0261,-2.0146,-2.0107,-2.0084,-2.0025,-1.9925,-1.9921,-1.987,-1.9817,-1.981,-1.9718,-1.9697,-1.9668,-1.962,-1.9613,-1.9572,-1.9529,-1.9529,-1.9604,-1.9615,-1.9624,-1.9636,-1.9532,0,0,0,0,0,-2.0153,-2.016,-2.0127,-2.011,-2.0001,-1.9944,-1.9929,-1.9854,-1.9825,-1.9823,-1.9758,-1.9704,-1.9596,-1.9588,-1.9572,-1.9581,-1.9476,-1.9479,-1.9482,-1.9574,-1.9586,-1.9596,0,0,0,0,0,0,-2.0145,-2.0126,-2.0126,-2.0028,-2.0003,-1.9943,-1.9877,-1.9857,-1.9823,-1.9814,-1.9718,-1.9701,-1.9635,-1.9591,-1.9577,-1.9588,-1.9536,-1.9477,-1.9479,-1.9482,-1.9578,-1.9588,-1.9596,0,0,0,0,0,-2.0139,-2.0123,-1.997,-2.0027,-2.0005,-1.9907,-1.9876,-1.9859,-1.9831,-1.9732,-1.9713,-1.9778,-1.9638,-1.9621,-1.9582,-1.9596,-1.9545,-1.954,-1.9479,-1.9481,-1.9482,-1.9583,0,0,0,0,0,0,-2.0135,-2.0106,-1.9963,-1.9954,-2.0019,-1.9909,-1.9889,-1.9861,-1.975,-1.9732,-1.9787,-1.978,-1.9639,-1.9626,-1.9614,-1.9603,-1.9552,-1.9547,-1.9544,-1.948,-1.9482,-1.9483,0,0,0,0,0,0,-2.0114,-2.0099,-1.9958,-1.9953,-1.9942,-1.9911,-1.9893,-1.985,-1.975,-1.9811,-1.9802,-1.9785,-1.9657,-1.963,-1.962,-1.9555,-1.9557,-1.9553,-1.955,-1.9548,-1.9481,-1.9483,0,0,0,0,0,0,-2.0106,-2.0093,-1.9955,-1.9946,-1.9936,-1.9823,-1.9871,-1.9763,-1.9747,-1.9817,-1.9743,-1.9741,-1.9662,-1.9651,-1.9625,-1.9564,-1.9557,-1.9557,-1.9554,-1.9552,-1.955,0,0,0,0,0,0,0,-2.01,-2.0208,-2.002,-1.9941,-1.9932,-1.9865,-1.9863,-1.986,-1.9746,-1.9745,-1.9743,-1.9742,-1.9583,-1.9578,-1.9573,-1.9572,0,0,-1.9558,-1.9555,0,0,0,0,0,0,0,0,-2.0212,-2.0209,-2.002,-2.0018,-2.0016,-1.9865,-1.9863,-1.9861,-1.9746,-1.9745,-1.9744,-1.9742,-1.9582,-1.9578,-1.9574,0,0,0,0,0,0,0,0,0,0,0,0,0,0,0,-2.002,-2.0018,0,-1.9865,-1.9863,-1.9861,-1.9746,-1.9745,-1.9744,-1.9743,-1.9581,-1.9577,-1.9574,0,0,0,0,0,0,0,0,0,0,0,0,0,0,0,0,0,0,0,0,0,0,0,0,0,0,0,0,0,0,0,0,0,0,0,0,0,0,0,0,0,0,0,0,0,0,0,0,0,0,0,0,0,0,0,0,0,0,0,0,0,0,0,0,0,0,0,0,0]}],[{"header":{"parameterUnit":"kt","parameterCategory":2,"dx":1,"dy":1,"la1":30.253999710083008,"la2":30.299108505249023,"lo1":-89.0895004272461,"lo2":-89.04439544677734,"nx":28,"ny":28,"refTime":"2022-10-07T21:00:00:Z","depth":0,"parameterNumber":2,"parameterNumberName":"V-component_of_WINDS"},"data":[-8.3042,-8.3043,-8.3086,-8.3105,-8.3146,-8.3166,-8.3186,-8.3217,-8.3251,-8.3278,-8.3301,-8.334,-8.3388,-8.3423,-8.3448,-8.3464,-8.3471,-8.3445,-8.3468,-8.3555,-8.3569,-8.3583,-8.3587,-8.3446,-8.3446,-8.3372,-8.3371,-8.337,-8.3114,-8.3155,-8.3177,-8.3226,-8.3245,-8.3299,-8.3341,-8.3353,-8.3367,-8.3408,-8.3431,-8.3457,-8.3481,-8.3537,-8.3566,-8.3566,-8.359,-8.3571,-8.357,-8.3577,-8.3672,-8.3676,-8.3551,-8.3551,-8.3551,-8.3551,-8.3552,-8.3552,-8.3254,-8.3252,-8.3306,-8.3329,-8.3365,-8.3396,-8.34,-8.3449,-8.3468,-8.3504,-8.3547,-8.3562,-8.3608,-8.3659,-8.3684,-8.3697,-8.3724,-8.3713,-8.3711,-8.3707,-8.3699,-8.3805,-8.3703,-8.3703,-8.3704,-8.3704,-8.3705,0,-8.3369,-8.3405,-8.3426,-8.3462,-8.348,-8.3509,-8.3542,-8.3546,-8.3627,-8.3639,-8.3659,-8.3676,-8.371,-8.3731,-8.3764,-8.3792,-8.3841,-8.385,-8.3843,-8.3823,-8.3804,-8.3815,-8.397,-8.3851,-8.3852,-8.3853,-8.3854,-8.3855,-8.3514,-8.3504,-8.3578,-8.3588,-8.3615,-8.3628,-8.3644,-8.3717,-8.373,-8.3779,-8.3771,-8.3793,-8.3814,-8.3835,-8.3885,-8.3908,-8.3931,-8.3883,-8.3934,-8.3919,-8.3931,-8.3931,-8.3931,-8.3869,-8.3868,-8.3866,-8.3865,0,-8.3592,-8.3657,-8.3654,-8.3725,-8.3743,-8.3728,-8.3788,-8.3786,-8.3831,-8.3834,-8.3838,-8.3906,-8.3921,-8.398,-8.4006,-8.4036,-8.4013,-8.4035,-8.4001,-8.4008,-8.3971,-8.3973,-8.3837,-8.3824,-8.3971,-8.397,-8.3968,0,-8.374,-8.3722,-8.382,-8.3814,-8.3799,-8.3871,-8.3853,-8.3889,-8.3928,-8.393,-8.3998,-8.3998,-8.4072,-8.4081,-8.4123,-8.4115,-8.4119,-8.4141,-8.4152,-8.4134,-8.4131,-8.4137,-8.4143,-8.4176,-8.4177,-8.4177,-8.4178,0,-8.3854,-8.3883,-8.3875,-8.3891,-8.3962,-8.3955,-8.3984,-8.4026,-8.4038,-8.4063,-8.4072,-8.4094,-8.4105,-8.4122,-8.4176,-8.4209,-8.4166,-8.4223,-8.4188,-8.4187,-8.4172,-8.4171,-8.404,-8.4179,-8.4179,-8.4179,-8.4179,0,-8.3981,-8.4008,-8.3984,-8.4045,-8.4049,-8.4041,-8.407,-8.4077,-8.4115,-8.4143,-8.4162,-8.4211,-8.4207,-8.426,-8.4255,-8.4284,-8.4291,-8.4311,-8.431,-8.431,-8.4366,-8.4284,-8.4154,-8.4143,-8.4316,-8.4317,-8.4318,0,-8.4095,-8.4087,-8.4148,-8.4122,-8.4127,-8.4204,-8.4197,-8.4227,-8.4263,-8.4271,-8.4309,-8.4314,-8.4366,-8.4374,-8.4365,-8.4403,-8.4366,-8.441,-8.4417,-8.4416,-8.4406,-8.4288,-8.4253,-8.4177,-8.4333,-8.4332,-8.4331,0,-8.419,-8.4274,-8.4264,-8.4287,-8.4339,-8.434,-8.4331,-8.4353,-8.4355,-8.438,-8.4373,-8.4381,-8.4421,-8.4433,-8.4473,-8.4459,-8.4393,-8.4502,-8.4503,-8.4481,-8.4345,-8.4313,-8.43,-8.4423,-8.4422,-8.442,-8.4343,0,-8.437,-8.4371,-8.4349,-8.4389,-8.44,-8.4384,-8.4445,-8.4448,-8.4488,-8.4524,-8.4514,-8.4548,-8.4564,-8.4563,-8.4598,-8.4549,-8.4565,-8.4605,-8.4657,-8.4579,-8.4555,-8.4545,-8.4689,-8.4691,-8.4693,-8.4694,0,0,-8.4463,-8.4465,-8.4528,-8.4522,-8.4534,-8.461,-8.4589,-8.4609,-8.4644,-8.465,-8.4681,-8.4694,-8.4717,-8.4697,-8.4678,-8.4683,-8.468,-8.4702,-8.4615,-8.4606,-8.4598,-8.4571,-8.456,-8.4697,-8.4697,-8.4698,-8.4698,0,-8.454,-8.4569,-8.4547,-8.4572,-8.461,-8.4649,-8.4644,-8.4692,-8.4713,-8.4702,-8.4761,-8.476,-8.4764,-8.4784,-8.4794,-8.4708,-8.4749,-8.4708,-8.4644,-8.4629,-8.4618,-8.4609,-8.458,-8.4568,-8.4702,-8.4702,-8.4702,0,-8.4644,-8.4683,-8.4678,-8.4708,-8.4731,-8.473,-8.4803,-8.4796,-8.4795,-8.4871,-8.4857,-8.4882,-8.491,-8.4882,-8.487,-8.4897,-8.481,-8.4845,-8.4837,-8.4835,-8.4823,-8.481,-8.4798,-8.4954,-8.4955,-8.4956,0,0,-8.4702,-8.4703,-8.4762,-8.4728,-8.474,-8.4796,-8.4799,-8.4838,-8.4864,-8.4873,-8.4905,-8.4926,-8.4931,-8.4931,-8.4936,-8.4896,-8.4907,-8.4874,-8.4862,-8.4852,-8.4845,-8.483,-8.4817,-8.4958,-8.4958,-8.4958,0,0,-8.4728,-8.4797,-8.4833,-8.4801,-8.4826,-8.4879,-8.4855,-8.4898,-8.4909,-8.4917,-8.4977,-8.4985,-8.4959,-8.4978,-8.5006,-8.4955,-8.5006,-8.5,-8.4942,-8.4928,-8.4917,-8.4911,-8.5079,0,0,0,0,0,-8.4837,-8.479,-8.4821,-8.4825,-8.4858,-8.4862,-8.4867,-8.4917,-8.4955,-8.4936,-8.497,-8.5013,-8.5007,-8.5034,-8.5034,-8.5001,-8.4991,-8.4985,-8.4979,-8.4896,-8.4881,-8.4867,0,0,0,0,0,0,-8.4838,-8.4842,-8.4823,-8.4872,-8.4881,-8.4864,-8.4939,-8.4951,-8.4958,-8.4967,-8.5005,-8.5014,-8.5055,-8.5037,-8.5036,-8.5003,-8.508,-8.4988,-8.4983,-8.4979,-8.4891,-8.4878,-8.4867,0,0,0,0,0,-8.484,-8.4843,-8.4883,-8.4874,-8.488,-8.4938,-8.4941,-8.4952,-8.4958,-8.5008,-8.5018,-8.4995,-8.5052,-8.5056,-8.5037,-8.5002,-8.508,-8.508,-8.4985,-8.4981,-8.4978,-8.4885,0,0,0,0,0,0,-8.4841,-8.4853,-8.4886,-8.489,-8.4894,-8.494,-8.4949,-8.4952,-8.4999,-8.5008,-8.5001,-8.5007,-8.505,-8.5053,-8.5055,-8.4999,-8.508,-8.508,-8.508,-8.4982,-8.4979,-8.4977,0,0,0,0,0,0,-8.4851,-8.4855,-8.4888,-8.4912,-8.4919,-8.4941,-8.4949,-8.4938,-8.4998,-8.4989,-8.4996,-8.5003,-8.5046,-8.5051,-8.5053,-8.5034,-8.5081,-8.5081,-8.508,-8.508,-8.498,-8.4977,0,0,0,0,0,0,-8.4854,-8.4857,-8.4911,-8.4916,-8.4923,-8.497,-8.4932,-8.4961,-8.5022,-8.4986,-8.5029,-8.5032,-8.5042,-8.5045,-8.5051,-8.5031,-8.5033,-8.5081,-8.5081,-8.508,-8.508,0,0,0,0,0,0,0,-8.4856,-8.482,-8.4863,-8.492,-8.4926,-8.4926,-8.4927,-8.4929,-8.5023,-8.5026,-8.5028,-8.5031,-8.5082,-8.5082,-8.5082,-8.5028,0,0,-8.5081,-8.5081,0,0,0,0,0,0,0,0,-8.482,-8.482,-8.4863,-8.4864,-8.4865,-8.4927,-8.4927,-8.4928,-8.5023,-8.5025,-8.5028,-8.503,-8.5082,-8.5082,-8.5082,0,0,0,0,0,0,0,0,0,0,0,0,0,0,0,-8.4863,-8.4864,0,-8.4927,-8.4927,-8.4928,-8.5024,-8.5025,-8.5027,-8.5029,-8.5082,-8.5082,-8.5082,0,0,0,0,0,0,0,0,0,0,0,0,0,0,0,0,0,0,0,0,0,0,0,0,0,0,0,0,0,0,0,0,0,0,0,0,0,0,0,0,0,0,0,0,0,0,0,0,0,0,0,0,0,0,0,0,0,0,0,0,0,0,0,0,0,0,0,0,0]}]]]